Williamsburg, VA

11:56 PM EDT on April 24, 2017 (GMT -0400)
Williamsburg-jamestown

Weather History for KJGG - November, 2012

Change the Weather History Date:

Saturday, November 3, 2012

  Actual Average Record
Temperature  
Mean Temperature 45 °F -  
Max Temperature 55 °F 69 °F 86 °F (2016)
Min Temperature 35 °F 46 °F 29 °F (1980)
Degree Days  
Heating Degree Days 20    
Moisture  
Dew Point 35 °F    
Average Humidity 75    
Maximum Humidity 93    
Minimum Humidity 44    
Precipitation  
Precipitation 0.00 in - - ()
Sea Level Pressure  
Sea Level Pressure 30.04 in    
Wind  
Wind Speed 4 mph (NW)    
Max Wind Speed 15 mph    
Max Gust Speed 24 mph    
Visibility 10 miles    
Events      
Averages and records for this station are not official NWS values.
T = Trace of Precipitation, MM = Missing Value Source: NWS Daily Summary

Daily Weather History Graph

Daily Weather History Graph

Search for Another Location

Airport or City:

Trip Planner

Search our weather history database for the weather conditions in past years. The results will help you decide how hot, cold, wet, or windy it might be!

Date:

Astronomy

Nov. 03, 2012 Rise Set
Actual Time 7:33 AM EDT 6:06 PM EDT
Civil Twilight 7:06 AM EDT 6:33 PM EDT
Nautical Twilight 6:35 AM EDT 7:04 PM EDT
Astronomical Twilight 6:05 AM EDT 7:34 PM EDT
Moon 9:47 PM EDT (11/3) 11:34 AM EDT (11/3)
Length of Visible Light 11h 26m
Length of Day
10h 32m
Waning Gibbous, 80% of the Moon is Illuminated
Nov 3
Waning Gibbous
Nov 6
Last Quarter
Nov 13
New
Nov 20
First Quarter
Nov 28
Full

Hourly Weather History & Observations

Time (EDT) Temp. Windchill Dew Point Humidity Pressure Visibility Wind Dir Wind Speed Gust Speed Precip Events Conditions
12:15 AM 37.4 °F - 35.6 °F 93% 29.96 in 10.0 mi Calm Calm - N/A   Clear
12:35 AM 37.4 °F - 35.6 °F 93% 29.96 in 10.0 mi Calm Calm - N/A   Clear
12:55 AM 37.4 °F - 35.6 °F 93% 29.97 in 10.0 mi Calm Calm - N/A   Clear
1:15 AM 37.4 °F 34.9 °F 35.6 °F 93% 29.97 in 10.0 mi WNW 3.5 mph - N/A   Clear
1:35 AM 37.4 °F - 35.6 °F 93% 29.97 in 10.0 mi Calm Calm - N/A   Clear
1:55 AM 37.4 °F - 33.8 °F 87% 29.97 in 10.0 mi Calm Calm - N/A   Clear
2:15 AM 37.4 °F - 35.6 °F 93% 29.97 in 10.0 mi Calm Calm - N/A   Clear
2:35 AM 37.4 °F - 35.6 °F 93% 29.97 in 10.0 mi Calm Calm - N/A   Clear
2:55 AM 37.4 °F 34.9 °F 33.8 °F 87% 29.97 in 10.0 mi NW 3.5 mph - N/A   Clear
3:15 AM 35.6 °F 30.7 °F 33.8 °F 93% 29.97 in 10.0 mi WNW 5.8 mph - N/A   Clear
3:35 AM 35.6 °F 31.7 °F 33.8 °F 93% 29.97 in 10.0 mi NW 4.6 mph - N/A   Clear
3:55 AM 37.4 °F 33.8 °F 33.8 °F 87% 29.98 in 10.0 mi NW 4.6 mph - N/A   Clear
4:15 AM 37.4 °F 34.9 °F 33.8 °F 87% 29.98 in 10.0 mi NW 3.5 mph - N/A   Clear
4:35 AM 37.4 °F 33.8 °F 33.8 °F 87% 29.98 in 10.0 mi NW 4.6 mph - N/A   Clear
4:55 AM 35.6 °F 31.7 °F 33.8 °F 93% 29.98 in 10.0 mi WNW 4.6 mph - N/A   Clear
5:15 AM 35.6 °F - 33.8 °F 93% 29.98 in 10.0 mi Calm Calm - N/A   Clear
5:35 AM 35.6 °F 31.7 °F 33.8 °F 93% 29.99 in 10.0 mi WNW 4.6 mph - N/A   Clear
5:55 AM 35.6 °F 30.7 °F 33.8 °F 93% 30.00 in 10.0 mi WNW 5.8 mph - N/A   Clear
6:15 AM 35.6 °F 30.7 °F 33.8 °F 93% 30.00 in 10.0 mi WNW 5.8 mph - N/A   Clear
6:35 AM 35.6 °F 30.7 °F 33.8 °F 93% 30.01 in 10.0 mi WNW 5.8 mph - N/A   Clear
6:55 AM 35.6 °F 29.9 °F 33.8 °F 93% 30.02 in 10.0 mi NW 6.9 mph - N/A   Clear
7:15 AM 35.6 °F 30.7 °F 33.8 °F 93% 30.03 in 10.0 mi NW 5.8 mph - N/A   Clear
7:35 AM 35.6 °F 30.7 °F 33.8 °F 93% 30.04 in 10.0 mi NW 5.8 mph - N/A   Clear
7:55 AM 35.6 °F 31.7 °F 33.8 °F 93% 30.05 in 10.0 mi NW 4.6 mph - N/A   Clear
8:15 AM 37.4 °F 32.8 °F 33.8 °F 87% 30.05 in 10.0 mi NW 5.8 mph - N/A   Clear
8:35 AM 39.2 °F 35.0 °F 35.6 °F 87% 30.06 in 10.0 mi NW 5.8 mph - N/A   Mostly Cloudy
8:55 AM 41.0 °F 38.0 °F 35.6 °F 81% 30.07 in 10.0 mi NNW 4.6 mph - N/A   Overcast
9:15 AM 42.8 °F 39.3 °F 35.6 °F 76% 30.07 in 10.0 mi NNW 5.8 mph - N/A   Overcast
9:35 AM 42.8 °F 41.1 °F 35.6 °F 76% 30.07 in 10.0 mi NNW 3.5 mph - N/A   Overcast
9:55 AM 44.6 °F 41.4 °F 35.6 °F 71% 30.07 in 10.0 mi NNW 5.8 mph - N/A   Overcast
10:15 AM 46.4 °F 41.9 °F 35.6 °F 66% 30.07 in 10.0 mi North 9.2 mph - N/A   Overcast
10:35 AM 48.2 °F - 35.6 °F 62% 30.06 in 10.0 mi NW 5.8 mph - N/A   Mostly Cloudy
11:15 AM 51.8 °F - 33.8 °F 50% 30.06 in 10.0 mi NNW 13.8 mph 20.7 mph N/A   Clear
11:35 AM 51.8 °F - 33.8 °F 50% 30.06 in 10.0 mi NNW 12.7 mph 20.7 mph N/A   Scattered Clouds
11:55 AM 51.8 °F - 33.8 °F 50% 30.05 in 10.0 mi WNW 13.8 mph 24.2 mph N/A   Mostly Cloudy
12:15 PM 53.6 °F - 33.8 °F 47% 30.05 in 10.0 mi NNW 11.5 mph 20.7 mph N/A   Mostly Cloudy
12:35 PM 51.8 °F - 33.8 °F 50% 30.05 in 10.0 mi North 4.6 mph 16.1 mph N/A   Overcast
12:55 PM 51.8 °F - 33.8 °F 50% 30.05 in 10.0 mi NNW 9.2 mph - N/A   Overcast
1:15 PM 51.8 °F - 33.8 °F 50% 30.04 in 10.0 mi NW 8.1 mph 16.1 mph N/A   Overcast
1:35 PM 51.8 °F - 33.8 °F 50% 30.04 in 10.0 mi NW 15.0 mph 21.9 mph N/A   Overcast
1:55 PM 51.8 °F - 33.8 °F 50% 30.04 in 10.0 mi NW 8.1 mph - N/A   Overcast
2:15 PM 51.8 °F - 33.8 °F 50% 30.03 in 10.0 mi WNW 10.4 mph - N/A   Overcast
2:35 PM 53.6 °F - 33.8 °F 47% 30.03 in 10.0 mi WNW 10.4 mph - N/A   Overcast
2:55 PM 53.6 °F - 33.8 °F 47% 30.03 in 10.0 mi WNW 12.7 mph 18.4 mph N/A   Overcast
3:15 PM 55.4 °F - 33.8 °F 44% 30.02 in 10.0 mi NNW 8.1 mph - N/A   Scattered Clouds
3:35 PM 55.4 °F - 33.8 °F 44% 30.02 in 10.0 mi NNW 5.8 mph 9.2 mph N/A   Clear
3:55 PM 55.4 °F - 33.8 °F 44% 30.02 in 10.0 mi WNW 12.7 mph 17.3 mph N/A   Scattered Clouds
4:15 PM 55.4 °F - 33.8 °F 44% 30.02 in 10.0 mi WNW 6.9 mph - N/A   Scattered Clouds
4:35 PM 55.4 °F - 33.8 °F 44% 30.03 in 10.0 mi NW 9.2 mph - N/A   Scattered Clouds
4:55 PM 55.4 °F - 33.8 °F 44% 30.03 in 10.0 mi NNW 11.5 mph 18.4 mph N/A   Clear
5:15 PM 55.4 °F - 33.8 °F 44% 30.03 in 10.0 mi NNW 6.9 mph - N/A   Clear
5:35 PM 53.6 °F - 35.6 °F 51% 30.03 in 10.0 mi NW 5.8 mph - N/A   Clear
5:55 PM 51.8 °F - 35.6 °F 54% 30.03 in 10.0 mi NW 3.5 mph - N/A   Clear
6:15 PM 48.2 °F - 35.6 °F 62% 30.04 in 10.0 mi Calm Calm - N/A   Clear
6:35 PM 46.4 °F - 37.4 °F 71% 30.05 in 10.0 mi Calm Calm - N/A   Clear
6:55 PM 44.6 °F - 37.4 °F 76% 30.06 in 10.0 mi Calm Calm - N/A   Clear
7:15 PM 42.8 °F - 37.4 °F 81% 30.06 in 10.0 mi Calm Calm - N/A   Clear
7:35 PM 42.8 °F - 37.4 °F 81% 30.07 in 10.0 mi Calm Calm - N/A   Clear
7:55 PM 42.8 °F - 37.4 °F 81% 30.07 in 10.0 mi Calm Calm - N/A   Clear
8:15 PM 41.0 °F - 37.4 °F 87% 30.08 in 10.0 mi Calm Calm - N/A   Clear
8:35 PM 41.0 °F 39.0 °F 37.4 °F 87% 30.08 in 10.0 mi NNE 3.5 mph - N/A   Clear
8:55 PM 41.0 °F 39.0 °F 37.4 °F 87% 30.09 in 10.0 mi North 3.5 mph - N/A   Clear
9:15 PM 41.0 °F 38.0 °F 37.4 °F 87% 30.10 in 10.0 mi North 4.6 mph - N/A   Clear
9:35 PM 41.0 °F 39.0 °F 37.4 °F 87% 30.09 in 10.0 mi NNE 3.5 mph - N/A   Clear
9:55 PM 39.2 °F - 37.4 °F 93% 30.10 in 10.0 mi Calm Calm - N/A   Clear
10:15 PM 41.0 °F - 37.4 °F 87% 30.10 in 10.0 mi Calm Calm - N/A   Mostly Cloudy
10:35 PM 42.8 °F - 39.2 °F 87% 30.10 in 10.0 mi Calm Calm - N/A   Overcast
10:55 PM 42.8 °F - 39.2 °F 87% 30.10 in 10.0 mi Calm Calm - N/A   Overcast
11:15 PM 42.8 °F - 39.2 °F 87% 30.11 in 10.0 mi Calm Calm - N/A   Overcast
11:35 PM 42.8 °F - 37.4 °F 81% 30.11 in 10.0 mi Calm Calm - N/A   Overcast
11:55 PM 44.6 °F - 39.2 °F 81% 30.11 in 10.0 mi Calm Calm - N/A   Overcast